Location: Bh?mavarapp?du
(16.7041°N, 80.6518°E)
Time: 06:22:37
(UTC+00:00)

BREEZE-M DEB (TANK) - Pass Details

Date: 21 April 2021
Orbit: 310 x 15397 km, 49.5° (Epoch: 05 May)

Event Time Altitude Azimuth Distance (km) Brightness Sun altitude
Rises 12:55:40 0° 324° (NW) 2,914 6.9 -1.1°
Reaches altitude 10° 12:57:04 10° 327° (NNW) 2,334 6.3 -1.5°
Maximum altitude 13:02:03 75° 53° (NE) 1,537 4.5 -2.6°
Drops below altitude 10° 13:24:52 10° 139° (SE) 9,384 8.0 -7.9°
Sets 13:39:36 0° 141° (SE) 13,375 8.8 -11.3°
